PBD731 URSS-URRP

Flight info

Callsign PBD731
Flight time 0h 51m
Altitude 34000
Route ADNET1S ADNET W79 AMEPU AMEPU2U
Aircraft B738/M-SDE2E3FGHIRWXY/LB1

Departure

Time 2026-04-21 17:03
Airport Sochi International Airport (URSS)

Arrival

Time 2026-04-21 17:54
Airport Platov International Airport (URRP)
Time Latitude Longitude Altitude Speed Heading
2026-04-21 16:41 43.44461 39.93579 43 ft 0 kts
2026-04-21 16:56 43.44450 39.93577 43 ft 2 kts
2026-04-21 16:56 43.44435 39.93576 42 ft 2 kts
2026-04-21 16:57 43.44420 39.93574 42 ft 2 kts
2026-04-21 16:57 43.44405 39.93571 42 ft 2 kts 36°
2026-04-21 16:57 43.44400 39.93563 41 ft 1 kts 63°
2026-04-21 16:57 43.44397 39.93554 41 ft 0 kts 64°
2026-04-21 16:59 43.44400 39.93563 41 ft 3 kts 60°
2026-04-21 16:59 43.44433 39.93650 44 ft 15 kts 65°
2026-04-21 17:00 43.44491 39.93818 48 ft 25 kts 65°
2026-04-21 17:00 43.44584 39.94088 51 ft 33 kts 64°
2026-04-21 17:00 43.44646 39.94272 57 ft 30 kts 65°
2026-04-21 17:00 43.44769 39.94631 50 ft 31 kts 65°
2026-04-21 17:01 43.44858 39.94891 52 ft 28 kts 65°
2026-04-21 17:01 43.44942 39.95126 57 ft 25 kts 61°
2026-04-21 17:01 43.44992 39.95314 68 ft 13 kts 109°
2026-04-21 17:01 43.44986 39.95329 69 ft 0 kts 122°
2026-04-21 17:02 43.44983 39.95335 69 ft 4 kts 133°
2026-04-21 17:02 43.44907 39.95365 69 ft 16 kts 209°
2026-04-21 17:02 43.44816 39.95132 60 ft 54 kts 244°
2026-04-21 17:02 43.44543 39.94334 48 ft 126 kts 245°
2026-04-21 17:03 43.44086 39.92999 106 ft 174 kts 244°
2026-04-21 17:03 43.43594 39.91510 910 ft 172 kts 247°
2026-04-21 17:03 43.43247 39.89969 1626 ft 174 kts 257°
2026-04-21 17:03 43.43125 39.88253 2116 ft 186 kts 270°
2026-04-21 17:04 43.43269 39.86445 2616 ft 198 kts 282°
2026-04-21 17:04 43.43697 39.84578 3060 ft 215 kts 293°
2026-04-21 17:04 43.44488 39.82775 3552 ft 230 kts 307°
2026-04-21 17:04 43.45531 39.81007 4036 ft 247 kts 307°
2026-04-21 17:05 43.46612 39.79110 4612 ft 259 kts 306°
2026-04-21 17:05 43.47714 39.77116 5265 ft 268 kts 305°
2026-04-21 17:05 43.48843 39.75070 6058 ft 270 kts 305°
2026-04-21 17:05 43.49974 39.73037 6857 ft 271 kts 304°
2026-04-21 17:06 43.51120 39.70978 7623 ft 273 kts 304°
2026-04-21 17:06 43.52274 39.68906 8397 ft 274 kts 304°
2026-04-21 17:06 43.53426 39.66841 9183 ft 273 kts 304°
2026-04-21 17:06 43.54569 39.64789 9942 ft 273 kts 304°
2026-04-21 17:07 43.55735 39.62698 10523 ft 280 kts 304°
2026-04-21 17:07 43.56936 39.60540 10947 ft 293 kts 304°
2026-04-21 17:07 43.58184 39.58304 11604 ft 297 kts 304°
2026-04-21 17:07 43.59454 39.56038 12339 ft 299 kts 304°
2026-04-21 17:08 43.60801 39.53891 13055 ft 304 kts 313°
2026-04-21 17:08 43.62547 39.52182 13726 ft 315 kts 330°
2026-04-21 17:08 43.64647 39.51275 14474 ft 324 kts 346°
2026-04-21 17:08 43.66940 39.51070 15100 ft 336 kts 358°
2026-04-21 17:09 43.71561 39.52631 16443 ft 351 kts 15°
2026-04-21 17:09 43.73881 39.53797 17114 ft 355 kts 15°
2026-04-21 17:09 43.76178 39.54970 17727 ft 358 kts 15°
2026-04-21 17:10 43.78526 39.56145 18336 ft 362 kts 15°
2026-04-21 17:10 43.80894 39.57301 19067 ft 361 kts 14°
2026-04-21 17:10 43.83270 39.58440 19711 ft 364 kts 14°
2026-04-21 17:10 43.85670 39.59577 20290 ft 368 kts 14°
2026-04-21 17:11 43.88090 39.60717 20892 ft 371 kts 13°
2026-04-21 17:11 43.90535 39.61868 21456 ft 374 kts 13°
2026-04-21 17:11 43.93005 39.63030 22086 ft 376 kts 13°
2026-04-21 17:11 43.95503 39.64209 22635 ft 379 kts 13°
2026-04-21 17:12 43.97989 39.65381 23092 ft 385 kts 13°
2026-04-21 17:12 44.00551 39.66591 23658 ft 387 kts 13°
2026-04-21 17:12 44.03104 39.67798 24214 ft 389 kts 13°
2026-04-21 17:12 44.05658 39.69010 24715 ft 392 kts 13°
2026-04-21 17:13 44.08226 39.70229 25203 ft 394 kts 13°
2026-04-21 17:13 44.10837 39.71468 25692 ft 396 kts 13°
2026-04-21 17:13 44.12844 39.72422 26085 ft 397 kts 12°
2026-04-21 17:13 44.15546 39.73712 26610 ft 398 kts 12°
2026-04-21 17:14 44.18176 39.74967 26956 ft 403 kts 12°
2026-04-21 17:14 44.20833 39.76234 27414 ft 405 kts 12°
2026-04-21 17:14 44.23466 39.77491 27813 ft 407 kts 12°
2026-04-21 17:14 44.26173 39.78787 28207 ft 410 kts 12°
2026-04-21 17:15 44.28860 39.80076 28607 ft 413 kts 12°
2026-04-21 17:15 44.31603 39.81394 29019 ft 415 kts 11°
2026-04-21 17:15 44.34351 39.82595 29396 ft 413 kts
2026-04-21 17:15 44.37106 39.83402 29776 ft 407 kts 359°
2026-04-21 17:16 44.39925 39.83567 30163 ft 399 kts 350°
2026-04-21 17:16 44.42668 39.83252 30593 ft 395 kts 345°
2026-04-21 17:16 44.45381 39.82722 30851 ft 398 kts 343°
2026-04-21 17:16 44.48102 39.82106 31191 ft 398 kts 342°
2026-04-21 17:17 44.50861 39.81476 31431 ft 402 kts 343°
2026-04-21 17:17 44.53624 39.80861 31605 ft 407 kts 343°
2026-04-21 17:17 44.56433 39.80262 31932 ft 408 kts 343°
2026-04-21 17:17 44.59255 39.79681 32158 ft 412 kts 343°
2026-04-21 17:18 44.62122 39.79103 32428 ft 415 kts 344°
2026-04-21 17:18 44.64955 39.78540 32651 ft 417 kts 344°
2026-04-21 17:18 44.67876 39.77963 32817 ft 423 kts 344°
2026-04-21 17:18 44.70775 39.77391 33064 ft 424 kts 344°
2026-04-21 17:19 44.73680 39.76826 33388 ft 421 kts 344°
2026-04-21 17:19 44.76584 39.76263 33665 ft 420 kts 344°
2026-04-21 17:19 44.79477 39.75700 33867 ft 420 kts 344°
2026-04-21 17:19 44.82390 39.75127 33906 ft 424 kts 344°
2026-04-21 17:20 44.88187 39.73984 33907 ft 424 kts 344°
2026-04-21 17:20 44.94056 39.72827 33904 ft 424 kts 344°
2026-04-21 17:21 44.99884 39.71679 33894 ft 424 kts 343°
2026-04-21 17:21 45.05728 39.70520 33897 ft 425 kts 344°
2026-04-21 17:22 45.11585 39.69356 33903 ft 425 kts 344°
2026-04-21 17:22 45.17321 39.68218 33886 ft 426 kts 344°
2026-04-21 17:23 45.23266 39.67443 33888 ft 434 kts 351°
2026-04-21 17:23 45.29347 39.67612 33894 ft 437 kts 355°
2026-04-21 17:24 45.35413 39.68076 33882 ft 438 kts 355°
2026-04-21 17:24 45.41540 39.68567 33873 ft 441 kts 356°
2026-04-21 17:25 45.47632 39.69032 33883 ft 441 kts 355°
2026-04-21 17:25 45.53754 39.69476 33867 ft 440 kts 356°
2026-04-21 17:26 45.59858 39.69897 33876 ft 441 kts 355°
2026-04-21 17:26 45.65982 39.70312 33871 ft 442 kts 356°
2026-04-21 17:27 45.72044 39.70729 33588 ft 431 kts 355°
2026-04-21 17:27 45.75022 39.70941 33395 ft 422 kts 355°
2026-04-21 17:27 45.77939 39.71148 33199 ft 418 kts 355°
2026-04-21 17:28 45.80808 39.71343 33008 ft 417 kts 355°
2026-04-21 17:28 45.83723 39.71536 32826 ft 419 kts 355°
2026-04-21 17:28 45.86606 39.71726 32636 ft 418 kts 355°
2026-04-21 17:28 45.89523 39.71923 32436 ft 414 kts 355°
2026-04-21 17:29 45.92394 39.72120 32241 ft 411 kts 355°
2026-04-21 17:29 45.95233 39.72315 32043 ft 410 kts 355°
2026-04-21 17:29 45.98067 39.72508 31847 ft 409 kts 355°
2026-04-21 17:29 46.00891 39.72700 31650 ft 409 kts 355°
2026-04-21 17:30 46.03717 39.72892 31426 ft 405 kts 355°
2026-04-21 17:30 46.06534 39.73089 31122 ft 400 kts 355°
2026-04-21 17:30 46.09267 39.73280 30660 ft 397 kts 355°
2026-04-21 17:30 46.12019 39.73471 30190 ft 394 kts 355°
2026-04-21 17:31 46.12958 39.73535 30026 ft 393 kts 355°
2026-04-21 17:31 46.13068 39.73542 30007 ft 393 kts 355°
2026-04-21 17:31 46.15530 39.73710 29578 ft 391 kts 355°
2026-04-21 17:31 46.16998 39.73812 29327 ft 389 kts 355°
2026-04-21 17:32 46.19670 39.73997 28874 ft 386 kts 355°
2026-04-21 17:32 46.22347 39.74179 28401 ft 384 kts 355°
2026-04-21 17:32 46.24996 39.74361 27940 ft 382 kts 355°
2026-04-21 17:32 46.27654 39.74543 27475 ft 379 kts 355°
2026-04-21 17:33 46.30257 39.74719 27019 ft 377 kts 355°
2026-04-21 17:33 46.32887 39.74897 26553 ft 374 kts 355°
2026-04-21 17:33 46.35480 39.75072 26099 ft 372 kts 355°
2026-04-21 17:33 46.38046 39.75255 25618 ft 371 kts 356°
2026-04-21 17:34 46.40598 39.75466 25164 ft 369 kts 356°
2026-04-21 17:34 46.43135 39.75691 24717 ft 366 kts 356°
2026-04-21 17:34 46.45682 39.75921 24264 ft 364 kts 356°
2026-04-21 17:34 46.48206 39.76146 23812 ft 361 kts 356°
2026-04-21 17:35 46.50700 39.76368 23367 ft 358 kts 356°
2026-04-21 17:35 46.53161 39.76588 22937 ft 355 kts 356°
2026-04-21 17:35 46.55618 39.76803 22515 ft 352 kts 356°
2026-04-21 17:35 46.58050 39.77014 22088 ft 349 kts 356°
2026-04-21 17:36 46.60437 39.77223 21675 ft 346 kts 356°
2026-04-21 17:36 46.62842 39.77433 21256 ft 343 kts 357°
2026-04-21 17:36 46.65201 39.77639 20847 ft 341 kts 357°
2026-04-21 17:36 46.67534 39.77840 20424 ft 339 kts 357°
2026-04-21 17:37 46.69902 39.78050 20004 ft 336 kts 357°
2026-04-21 17:37 46.72201 39.78254 19593 ft 334 kts 357°
2026-04-21 17:37 46.74515 39.78463 19179 ft 332 kts 357°
2026-04-21 17:37 46.76827 39.78672 18780 ft 340 kts 357°
2026-04-21 17:38 46.79245 39.78875 18350 ft 349 kts 357°
2026-04-21 17:38 46.81661 39.79077 17917 ft 348 kts 357°
2026-04-21 17:38 46.84044 39.79287 17498 ft 344 kts 358°
2026-04-21 17:38 46.86429 39.79507 17069 ft 342 kts 358°
2026-04-21 17:39 46.88774 39.79724 16647 ft 338 kts 358°
2026-04-21 17:39 46.91121 39.79934 16224 ft 335 kts 358°
2026-04-21 17:39 46.93435 39.80136 15812 ft 332 kts 358°
2026-04-21 17:39 46.95710 39.80335 15405 ft 329 kts 359°
2026-04-21 17:40 46.97986 39.80533 14983 ft 327 kts 359°
2026-04-21 17:40 47.00264 39.80734 14574 ft 324 kts 359°
2026-04-21 17:40 47.02491 39.80930 14164 ft 321 kts 359°
2026-04-21 17:40 47.04715 39.81126 13754 ft 318 kts 359°
2026-04-21 17:41 47.06885 39.81321 13359 ft 315 kts 359°
2026-04-21 17:41 47.09051 39.81519 12963 ft 311 kts 359°
2026-04-21 17:41 47.11193 39.81710 12578 ft 308 kts 359°
2026-04-21 17:41 47.13241 39.81889 12210 ft 304 kts 359°
2026-04-21 17:42 47.15166 39.82055 11858 ft 302 kts 359°
2026-04-21 17:42 47.17245 39.82237 11478 ft 299 kts
2026-04-21 17:42 47.19307 39.82674 11076 ft 301 kts 13°
2026-04-21 17:42 47.21169 39.84023 10715 ft 301 kts 37°
2026-04-21 17:43 47.22711 39.86100 10350 ft 300 kts 45°
2026-04-21 17:43 47.24141 39.88307 9976 ft 299 kts 46°
2026-04-21 17:43 47.25564 39.90500 9760 ft 291 kts 45°
2026-04-21 17:43 47.26967 39.92600 9475 ft 288 kts 45°
2026-04-21 17:44 47.28380 39.94664 9119 ft 287 kts 44°
2026-04-21 17:44 47.29820 39.96730 8767 ft 287 kts 44°
2026-04-21 17:44 47.31239 39.98757 8426 ft 285 kts 44°
2026-04-21 17:44 47.32650 40.00782 8075 ft 285 kts 44°
2026-04-21 17:45 47.34074 40.02824 7746 ft 283 kts 44°
2026-04-21 17:45 47.35470 40.04818 7401 ft 282 kts 43°
2026-04-21 17:45 47.36883 40.06813 7059 ft 280 kts 43°
2026-04-21 17:45 47.38291 40.08819 6726 ft 280 kts 44°
2026-04-21 17:46 47.39675 40.10817 6382 ft 280 kts 45°
2026-04-21 17:46 47.41071 40.12844 6030 ft 279 kts 45°
2026-04-21 17:46 47.42440 40.14828 5695 ft 278 kts 46°
2026-04-21 17:46 47.43826 40.16829 5358 ft 277 kts 46°
2026-04-21 17:47 47.45197 40.18827 5006 ft 277 kts 45°
2026-04-21 17:47 47.46556 40.20806 4661 ft 276 kts 44°
2026-04-21 17:47 47.48055 40.22574 4338 ft 275 kts 31°
2026-04-21 17:47 47.49814 40.23491 4092 ft 267 kts
2026-04-21 17:48 47.51038 40.23364 3896 ft 261 kts 344°
2026-04-21 17:48 47.53330 40.22331 3588 ft 253 kts 337°
2026-04-21 17:48 47.54959 40.21535 3510 ft 243 kts 334°
2026-04-21 17:48 47.56464 40.20474 3438 ft 237 kts 319°
2026-04-21 17:49 47.57452 40.18678 3304 ft 220 kts 284°
2026-04-21 17:49 47.57641 40.16520 3077 ft 207 kts 259°
2026-04-21 17:49 47.57357 40.14491 2835 ft 196 kts 252°
2026-04-21 17:49 47.57062 40.12593 2709 ft 182 kts 253°
2026-04-21 17:50 47.56822 40.10831 2577 ft 169 kts 254°
2026-04-21 17:50 47.56601 40.09203 2437 ft 156 kts 252°
2026-04-21 17:50 47.56324 40.07675 2312 ft 152 kts 246°
2026-04-21 17:50 47.55942 40.06300 2223 ft 138 kts 240°
2026-04-21 17:51 47.55479 40.05069 2097 ft 139 kts 233°
2026-04-21 17:51 47.54935 40.03894 1888 ft 137 kts 231°
2026-04-21 17:51 47.54378 40.02731 1698 ft 138 kts 230°
2026-04-21 17:51 47.53814 40.01562 1505 ft 140 kts 230°
2026-04-21 17:52 47.53244 40.00388 1310 ft 141 kts 231°
2026-04-21 17:52 47.52674 39.99213 1121 ft 142 kts 231°
2026-04-21 17:52 47.52088 39.98022 914 ft 144 kts 231°
2026-04-21 17:52 47.51511 39.96807 738 ft 144 kts 231°
2026-04-21 17:53 47.50925 39.95614 553 ft 145 kts 231°
2026-04-21 17:53 47.50320 39.94384 336 ft 148 kts 232°
2026-04-21 17:53 47.49745 39.93205 264 ft 128 kts 236°
2026-04-21 17:53 47.49347 39.92374 243 ft 72 kts 235°
2026-04-21 17:54 47.49113 39.91888 218 ft 54 kts 232°
2026-04-21 17:54 47.48889 39.91427 189 ft 48 kts 234°
2026-04-21 17:54 47.48696 39.91114 167 ft 32 kts 174°
2026-04-21 17:54 47.48598 39.91237 162 ft 0 kts 82°
2026-04-21 17:55 47.48599 39.91239 162 ft 2 kts 82°
2026-04-21 17:55 47.48620 39.91309 166 ft 12 kts 54°
2026-04-21 17:55 47.48689 39.91453 175 ft 22 kts 54°
2026-04-21 17:56 47.48799 39.91679 188 ft 30 kts 54°
2026-04-21 17:56 47.48918 39.91923 202 ft 27 kts 56°
2026-04-21 17:56 47.48831 39.92115 197 ft 25 kts 144°
2026-04-21 17:56 47.48836 39.92309 202 ft 19 kts 55°
2026-04-21 17:57 47.48908 39.92462 208 ft 19 kts 55°
2026-04-21 17:57 47.48992 39.92636 212 ft 20 kts 54°
2026-04-21 17:57 47.49068 39.92616 217 ft 9 kts 324°
2026-04-21 17:57 47.49074 39.92609 217 ft 0 kts 324°